Shintaiei Maru — JD3904 — position and weather

sailwx.info

Track history (hours):
 
Tides and Currents Weather Stations Pressure Air Temp Water Temp Dewpoint Dewpoint Depression Visibility Wind Speed Wind Dir Waves Ship Positions

Shintaiei Maru

Last reported at 2018-Feb-20 05:09 UTC. Time now 2018-Feb-20 05:50 UTC.
Position N 34°34' E 138°15'.

Length 75 m; draft 4.5 m.

Type: Cargo ship. MMSI: 431006906.

Date/timePositionNaut miles runAvg speedWind from/ knotsBaromVisibWave heightAir tempDewpointWater temp
2018-Feb-20 05:09N 34°34' E 138°15'210.5
2018-Feb-20 05:00N 34°35' E 138°17'611.2
2018-Feb-20 04:27N 34°40' E 138°21'511.4
2018-Feb-20 04:01N 34°44' E 138°25'611.8
2018-Feb-20 03:30N 34°49' E 138°30'612.0
2018-Feb-20 03:00N 34°53' E 138°34'611.8
2018-Feb-20 02:30N 34°57' E 138°40'611.9
2018-Feb-20 02:00N 35°01' E 138°45'611.8
2018-Feb-20 01:30N 35°05' E 138°51'1 1.0
2018-Feb-20 00:59N 35°05' E 138°51'0 0.0
2018-Feb-20 00:23N 35°05' E 138°51'0 0.0
2018-Feb-19 23:59N 35°05' E 138°51'0 0.0
2018-Feb-19 22:05N 35°05' E 138°51'0 0.0
2018-Feb-19 21:53N 35°05' E 138°51'0 0.0
2018-Feb-19 21:17N 35°05' E 138°51'0 0.0
2018-Feb-19 20:23N 35°05' E 138°51'0 0.0
2018-Feb-19 15:26N 35°05' E 138°51'0 0.0
2018-Feb-19 14:56N 35°05' E 138°51'0 0.0
2018-Feb-19 14:19N 35°05' E 138°51'0 0.0
2018-Feb-19 12:56N 35°05' E 138°51'0 0.0
2018-Feb-19 12:29N 35°05' E 138°51'0 0.0
2018-Feb-19 11:47N 35°05' E 138°51'0 0.0
2018-Feb-19 11:23N 35°05' E 138°51'0 0.0
2018-Feb-19 10:41N 35°05' E 138°51'0 0.0
2018-Feb-19 10:28N 35°05' E 138°51'0 0.0
2018-Feb-19 09:58N 35°05' E 138°51'0 0.0
2018-Feb-19 09:17N 35°05' E 138°51'0 0.0
2018-Feb-19 08:59N 35°05' E 138°51'0 0.0
2018-Feb-19 08:13N 35°05' E 138°51'0 0.0
2018-Feb-19 07:56N 35°05' E 138°51'2 4.1
2018-Feb-19 07:27N 35°04' E 138°49'511.6
2018-Feb-19 07:00N 35°01' E 138°44'611.6
2018-Feb-19 06:30N 34°58' E 138°38'611.4
2018-Feb-19 06:00N 34°55' E 138°32'611.4
2018-Feb-19 05:30N 34°51' E 138°27'611.5
2018-Feb-19 05:00N 34°48' E 138°21'3 5.7
2018-Feb-19 04:28N 34°47' E 138°18'0 0.0
2018-Feb-18 23:11N 34°47' E 138°18'0 0.0
2018-Feb-18 22:50N 34°47' E 138°18'0 0.4
2018-Feb-18 22:29N 34°47' E 138°18'1 0.1
2018-Feb-18 11:43N 34°46' E 138°19'1 3.9
2018-Feb-18 11:28N 34°45' E 138°18'611.2
2018-Feb-18 10:56N 34°39' E 138°18'410.3
2018-Feb-18 10:30N 34°35' E 138°16'611.1
2018-Feb-18 10:00N 34°33' E 138°10'7510.0
2018-Feb-18 02:28N 34°05' E 136°45'86 8.7
2018-Feb-17 16:37N 33°49' E 135°03'112.1
2018-Feb-17 16:30N 33°50' E 135°02'611.9
2018-Feb-17 15:59N 33°54' E 134°58'611.5
2018-Feb-17 15:30N 33°59' E 134°53'611.8
2018-Feb-17 15:00N 34°03' E 134°49'611.9
2018-Feb-17 14:30N 34°08' E 134°45'612.1
2018-Feb-17 14:00N 34°13' E 134°40'611.7
2018-Feb-17 13:30N 34°17' E 134°35'510.9
2018-Feb-17 13:00N 34°19' E 134°29'611.1
2018-Feb-17 12:30N 34°21' E 134°22'910.6
2018-Feb-17 11:40N 34°24' E 134°12'  
2018-Feb-12 11:17N 34°31' E 134°03'911.7
2018-Feb-12 10:32N 34°35' E 134°13'611.9
2018-Feb-12 10:05N 34°38' E 134°19'211.2
2018-Feb-12 09:56N 34°39' E 134°20'811.7
2018-Feb-12 09:16N 34°42' E 134°28'311.3
2018-Feb-12 09:00N 34°43' E 134°32'5 9.5
2018-Feb-12 08:30N 34°45' E 134°37'2 0.2
2018-Feb-12 00:30N 34°47' E 134°38'3 5.6
2018-Feb-11 23:54N 34°44' E 134°37'0 1.0
2018-Feb-11 23:23N 34°43' E 134°38'0 0.0
2018-Feb-11 23:00N 34°43' E 134°38'0 0.0
2018-Feb-11 22:11N 34°43' E 134°38'0 0.0
2018-Feb-11 21:36N 34°43' E 134°38'0 0.0
2018-Feb-11 19:41N 34°43' E 134°38'0 0.0
2018-Feb-11 19:11N 34°43' E 134°38'0 0.0
2018-Feb-11 18:41N 34°43' E 134°38'0 0.0
2018-Feb-11 17:35N 34°43' E 134°38'0 0.0
2018-Feb-11 17:23N 34°43' E 134°38'0 0.0
2018-Feb-11 17:00N 34°43' E 134°38'0 0.0
2018-Feb-11 13:23N 34°43' E 134°38'0 0.0
2018-Feb-11 12:59N 34°43' E 134°38'0 0.0
2018-Feb-11 12:11N 34°43' E 134°38'0 0.0
2018-Feb-11 11:59N 34°43' E 134°38'0 0.0
2018-Feb-11 11:29N 34°43' E 134°38'0 0.0
2018-Feb-11 10:53N 34°43' E 134°38'0 0.0
2018-Feb-11 10:23N 34°43' E 134°38'0 0.0
2018-Feb-11 09:53N 34°43' E 134°38'0 0.0
2018-Feb-11 09:23N 34°43' E 134°38'0 0.0
2018-Feb-11 08:59N 34°43' E 134°38'0 0.0
2018-Feb-11 08:29N 34°43' E 134°38'0 0.0
2018-Feb-11 07:59N 34°43' E 134°38'0 0.0
2018-Feb-11 01:23N 34°43' E 134°38'0 0.0
2018-Feb-11 00:53N 34°43' E 134°38'0 0.0
2018-Feb-11 00:29N 34°43' E 134°38'0 0.0
2018-Feb-10 23:59N 34°43' E 134°38'0 0.0
2018-Feb-10 23:17N 34°43' E 134°38'0 0.0
2018-Feb-10 22:53N 34°43' E 134°38'0 0.0
2018-Feb-10 21:35N 34°43' E 134°38'0 0.0
2018-Feb-10 21:23N 34°43' E 134°38'0 0.0
2018-Feb-10 20:59N 34°43' E 134°38'0 0.0
2018-Feb-10 20:29N 34°43' E 134°38'0 0.0
2018-Feb-10 18:35N 34°43' E 134°38'0 0.0
2018-Feb-10 18:11N 34°43' E 134°38'0 0.5
2018-Feb-10 17:59N 34°43' E 134°38'6 9.8
2018-Feb-10 17:25N 34°38' E 134°37'611.1
2018-Feb-10 16:53N 34°32' E 134°37'410.9
2018-Feb-10 16:30N 34°28' E 134°37'510.9
2018-Feb-10 16:00N 34°22' E 134°37'610.8
2018-Feb-10 15:28N 34°16' E 134°38'10 9.8
2018-Feb-10 14:30N 34°08' E 134°45'510.0
2018-Feb-10 14:00N 34°05' E 134°49'510.0
2018-Feb-10 13:30N 34°01' E 134°52'510.4
2018-Feb-10 13:00N 33°56' E 134°56'510.3
2018-Feb-10 12:30N 33°53' E 134°60'  
Track history (hours):
 
Tides and Currents Weather Stations Pressure Air Temp Water Temp Dewpoint Dewpoint Depression Visibility Wind Speed Wind Dir Waves Ship Positions

Shintaiei Maru

Last reported at 2018-Feb-20 05:09 UTC. Time now 2018-Feb-20 05:50 UTC.
Position N 34°34' E 138°15'.

Length 75 m; draft 4.5 m.

Type: Cargo ship. MMSI: 431006906.

Date/timePositionNaut miles runAvg speedWind from/ knotsBaromVisibWave heightAir tempDewpointWater temp
2018-Feb-20 05:09N 34°34' E 138°15'210.5
2018-Feb-20 05:00N 34°35' E 138°17'611.2
2018-Feb-20 04:27N 34°40' E 138°21'511.4
2018-Feb-20 04:01N 34°44' E 138°25'611.8
2018-Feb-20 03:30N 34°49' E 138°30'612.0
2018-Feb-20 03:00N 34°53' E 138°34'611.8
2018-Feb-20 02:30N 34°57' E 138°40'611.9
2018-Feb-20 02:00N 35°01' E 138°45'611.8
2018-Feb-20 01:30N 35°05' E 138°51'1 1.0
2018-Feb-20 00:59N 35°05' E 138°51'0 0.0
2018-Feb-20 00:23N 35°05' E 138°51'0 0.0
2018-Feb-19 23:59N 35°05' E 138°51'0 0.0
2018-Feb-19 22:05N 35°05' E 138°51'0 0.0
2018-Feb-19 21:53N 35°05' E 138°51'0 0.0
2018-Feb-19 21:17N 35°05' E 138°51'0 0.0
2018-Feb-19 20:23N 35°05' E 138°51'0 0.0
2018-Feb-19 15:26N 35°05' E 138°51'0 0.0
2018-Feb-19 14:56N 35°05' E 138°51'0 0.0
2018-Feb-19 14:19N 35°05' E 138°51'0 0.0
2018-Feb-19 12:56N 35°05' E 138°51'0 0.0
2018-Feb-19 12:29N 35°05' E 138°51'0 0.0
2018-Feb-19 11:47N 35°05' E 138°51'0 0.0
2018-Feb-19 11:23N 35°05' E 138°51'0 0.0
2018-Feb-19 10:41N 35°05' E 138°51'0 0.0
2018-Feb-19 10:28N 35°05' E 138°51'0 0.0
2018-Feb-19 09:58N 35°05' E 138°51'0 0.0
2018-Feb-19 09:17N 35°05' E 138°51'0 0.0
2018-Feb-19 08:59N 35°05' E 138°51'0 0.0
2018-Feb-19 08:13N 35°05' E 138°51'0 0.0
2018-Feb-19 07:56N 35°05' E 138°51'2 4.1
2018-Feb-19 07:27N 35°04' E 138°49'511.6
2018-Feb-19 07:00N 35°01' E 138°44'611.6
2018-Feb-19 06:30N 34°58' E 138°38'611.4
2018-Feb-19 06:00N 34°55' E 138°32'611.4
2018-Feb-19 05:30N 34°51' E 138°27'611.5
2018-Feb-19 05:00N 34°48' E 138°21'3 5.7
2018-Feb-19 04:28N 34°47' E 138°18'0 0.0
2018-Feb-18 23:11N 34°47' E 138°18'0 0.0
2018-Feb-18 22:50N 34°47' E 138°18'0 0.4
2018-Feb-18 22:29N 34°47' E 138°18'1 0.1
2018-Feb-18 11:43N 34°46' E 138°19'1 3.9
2018-Feb-18 11:28N 34°45' E 138°18'611.2
2018-Feb-18 10:56N 34°39' E 138°18'410.3
2018-Feb-18 10:30N 34°35' E 138°16'611.1
2018-Feb-18 10:00N 34°33' E 138°10'7510.0
2018-Feb-18 02:28N 34°05' E 136°45'86 8.7
2018-Feb-17 16:37N 33°49' E 135°03'112.1
2018-Feb-17 16:30N 33°50' E 135°02'611.9
2018-Feb-17 15:59N 33°54' E 134°58'611.5
2018-Feb-17 15:30N 33°59' E 134°53'611.8
2018-Feb-17 15:00N 34°03' E 134°49'611.9
2018-Feb-17 14:30N 34°08' E 134°45'612.1
2018-Feb-17 14:00N 34°13' E 134°40'611.7
2018-Feb-17 13:30N 34°17' E 134°35'510.9
2018-Feb-17 13:00N 34°19' E 134°29'611.1
2018-Feb-17 12:30N 34°21' E 134°22'910.6
2018-Feb-17 11:40N 34°24' E 134°12'  
2018-Feb-12 11:17N 34°31' E 134°03'911.7
2018-Feb-12 10:32N 34°35' E 134°13'611.9
2018-Feb-12 10:05N 34°38' E 134°19'211.2
2018-Feb-12 09:56N 34°39' E 134°20'811.7
2018-Feb-12 09:16N 34°42' E 134°28'311.3
2018-Feb-12 09:00N 34°43' E 134°32'5 9.5
2018-Feb-12 08:30N 34°45' E 134°37'2 0.2
2018-Feb-12 00:30N 34°47' E 134°38'3 5.6
2018-Feb-11 23:54N 34°44' E 134°37'0 1.0
2018-Feb-11 23:23N 34°43' E 134°38'0 0.0
2018-Feb-11 23:00N 34°43' E 134°38'0 0.0
2018-Feb-11 22:11N 34°43' E 134°38'0 0.0
2018-Feb-11 21:36N 34°43' E 134°38'0 0.0
2018-Feb-11 19:41N 34°43' E 134°38'0 0.0
2018-Feb-11 19:11N 34°43' E 134°38'0 0.0
2018-Feb-11 18:41N 34°43' E 134°38'0 0.0
2018-Feb-11 17:35N 34°43' E 134°38'0 0.0
2018-Feb-11 17:23N 34°43' E 134°38'0 0.0
2018-Feb-11 17:00N 34°43' E 134°38'0 0.0
2018-Feb-11 13:23N 34°43' E 134°38'0 0.0
2018-Feb-11 12:59N 34°43' E 134°38'0 0.0
2018-Feb-11 12:11N 34°43' E 134°38'0 0.0
2018-Feb-11 11:59N 34°43' E 134°38'0 0.0
2018-Feb-11 11:29N 34°43' E 134°38'0 0.0
2018-Feb-11 10:53N 34°43' E 134°38'0 0.0
2018-Feb-11 10:23N 34°43' E 134°38'0 0.0
2018-Feb-11 09:53N 34°43' E 134°38'0 0.0
2018-Feb-11 09:23N 34°43' E 134°38'0 0.0
2018-Feb-11 08:59N 34°43' E 134°38'0 0.0
2018-Feb-11 08:29N 34°43' E 134°38'0 0.0
2018-Feb-11 07:59N 34°43' E 134°38'0 0.0
2018-Feb-11 01:23N 34°43' E 134°38'0 0.0
2018-Feb-11 00:53N 34°43' E 134°38'0 0.0
2018-Feb-11 00:29N 34°43' E 134°38'0 0.0
2018-Feb-10 23:59N 34°43' E 134°38'0 0.0
2018-Feb-10 23:17N 34°43' E 134°38'0 0.0
2018-Feb-10 22:53N 34°43' E 134°38'0 0.0
2018-Feb-10 21:35N 34°43' E 134°38'0 0.0
2018-Feb-10 21:23N 34°43' E 134°38'0 0.0
2018-Feb-10 20:59N 34°43' E 134°38'0 0.0
2018-Feb-10 20:29N 34°43' E 134°38'0 0.0
2018-Feb-10 18:35N 34°43' E 134°38'0 0.0
2018-Feb-10 18:11N 34°43' E 134°38'0 0.5
2018-Feb-10 17:59N 34°43' E 134°38'6 9.8
2018-Feb-10 17:25N 34°38' E 134°37'611.1
2018-Feb-10 16:53N 34°32' E 134°37'410.9
2018-Feb-10 16:30N 34°28' E 134°37'510.9
2018-Feb-10 16:00N 34°22' E 134°37'610.8
2018-Feb-10 15:28N 34°16' E 134°38'10 9.8
2018-Feb-10 14:30N 34°08' E 134°45'510.0
2018-Feb-10 14:00N 34°05' E 134°49'510.0
2018-Feb-10 13:30N 34°01' E 134°52'510.4
2018-Feb-10 13:00N 33°56' E 134°56'510.3
2018-Feb-10 12:30N 33°53' E 134°60'  

Dump ship's entire track history